{"data":{"norad_id":63137,"epoch":"2026-05-25T00:56:52.768032Z","epoch_age_seconds":64785,"freshness":"FRESH","line1":"1 63137U 25043F   26145.03949963  .00152390  00000+0  11666-2 0  9996","line2":"2 63137  42.9988 150.1766 0001459 258.4982 101.5721 15.70898548 71487","mean_motion":15.70898548,"eccentricity":0.0001459,"inclination_deg":42.9988,"raan_deg":150.1766,"arg_perigee_deg":258.4982,"mean_anomaly_deg":101.5721,"bstar":0.0011666,"rev_number":7148,"period_min":91.6672818772,"perigee_km":355.34516722106,"apogee_km":357.310284028,"semimajor_km":6734.4647256245,"source":"CELESTRAK","updated_at":"2026-05-25T13:38:19.914685Z"}}